EW1734 Weather Reports


time (UTC)temp
F
wind
direction
speed
knots
gust
knots
rain 1hr
in
rain 24hr
in
rain mn
in
humidity
%
barometer
mb
20260507033856 66 11 1.7 0.0 0.00 0.00 0.00 61 1015.0
20260507033832 66 11 1.7 0.0 0.00 0.00 0.00 62 1015.0
20260507033808 66 11 1.7 0.0 0.00 0.00 0.00 61 1015.0
20260507033600 66 11 1.7 0.0 0.00 0.00 0.00 61 1015.0
20260507033530 64 49 1.7 1.7 0.00 0.00 0.00 66 1016.8
20260507033511 66 11 1.7 0.0 0.00 0.00 0.00 61 1015.0
20260507033309 66 11 1.7 0.0 0.00 0.00 0.00 61 1015.0
20260507033239 66 11 1.7 1.7 0.00 0.00 0.00 61 1015.0
20260507033147 66 324 1.7 0.0 0.00 0.00 0.00 61 1014.8
20260507033110 66 324 1.7 0.0 0.00 0.00 0.00 61 1014.8
20260507033046 66 324 1.7 0.0 0.00 0.00 0.00 61 1014.8
20260507033027 64 98 0.9 1.7 0.00 0.00 0.00 66 1016.4
20260507033014 67 324 1.7 0.0 0.00 0.00 0.00 61 1014.8
20260507032950 67 324 1.7 0.0 0.00 0.00 0.00 60 1014.8
20260507032920 67 324 1.7 0.0 0.00 0.00 0.00 61 1014.8
20260507032843 67 324 1.7 0.0 0.00 0.00 0.00 61 1014.8
20260507032615 67 324 1.7 0.0 0.00 0.00 0.00 61 1014.8
20260507032538 67 324 1.7 0.0 0.00 0.00 0.00 60 1014.8
20260507032524 64 322 0.0 2.6 0.00 0.00 0.00 65 1016.5
20260507032514 67 324 1.7 0.0 0.00 0.00 0.00 60 1014.8
20260507032450 67 324 1.7 0.0 0.00 0.00 0.00 61 1014.8
20260507032420 67 324 1.7 0.0 0.00 0.00 0.00 60 1014.8
20260507032350 67 324 1.7 2.6 0.00 0.00 0.00 60 1014.8
20260507032300 67 352 0.0 0.0 0.00 0.00 0.00 60 1015.0
20260507032217 67 352 0.0 0.0 0.00 0.00 0.00 60 1015.0
20260507032140 67 352 0.0 0.0 0.00 0.00 0.00 60 1015.0
20260507032057 67 352 0.0 0.0 0.00 0.00 0.00 60 1015.0
20260507032020 64 129 0.0 0.9 0.00 0.00 0.00 65 1016.3
20260507031831 67 352 0.0 0.0 0.00 0.00 0.00 60 1015.0
20260507031754 67 352 0.0 0.0 0.00 0.00 0.00 60 1015.0
20260507031703 67 352 0.0 0.0 0.00 0.00 0.00 60 1015.0
20260507031626 67 352 0.0 0.0 0.00 0.00 0.00 60 1015.0
20260507031603 67 352 0.0 0.0 0.00 0.00 0.00 60 1015.0
20260507031532 67 352 0.0 1.7 0.00 0.00 0.00 60 1015.0
20260507031516 65 49 0.0 0.0 0.00 0.00 0.00 64 1016.5
20260507031443 68 350 0.0 0.0 0.00 0.00 0.00 59 1014.5
20260507031406 68 350 0.0 0.0 0.00 0.00 0.00 59 1014.5
20260507031316 68 350 0.0 0.0 0.00 0.00 0.00 59 1014.5
20260507031240 68 350 0.0 0.0 0.00 0.00 0.00 59 1014.5
20260507031014 65 41 0.0 0.9 0.00 0.00 0.00 64 1016.3
20260507031007 68 350 0.0 0.0 0.00 0.00 0.00 59 1014.5
20260507030917 68 350 0.0 0.0 0.00 0.00 0.00 59 1014.5
20260507030841 68 350 0.0 0.0 0.00 0.00 0.00 59 1014.5
20260507030634 69 350 0.0 0.0 0.00 0.00 0.00 59 1014.5
20260507030603 69 350 0.0 1.7 0.00 0.00 0.00 58 1014.5
20260507030510 65 129 0.0 0.0 0.00 0.00 0.00 63 1016.0
20260507030506 69 17 0.9 0.0 0.00 0.00 0.00 58 1014.5
20260507030443 69 17 0.9 0.0 0.00 0.00 0.00 59 1014.5
20260507030400 69 17 0.9 0.0 0.00 0.00 0.00 58 1014.5
20260507030316 69 17 0.9 0.0 0.00 0.00 0.00 58 1014.5
20260507030042 69 17 0.9 0.0 0.00 0.00 0.00 58 1014.5
20260507030008 65 350 0.0 1.7 0.00 0.00 0.00 62 1016.3
20260507030005 69 17 0.9 0.0 0.00 0.00 0.00 58 1014.5
20260507025929 69 17 0.9 0.0 0.00 0.00 0.00 58 1014.5
20260507025845 69 17 0.9 0.0 0.00 0.00 0.00 58 1014.5
20260507025809 69 17 0.9 0.0 0.00 0.00 0.00 58 1014.5
20260507025738 69 17 0.9 0.0 0.00 0.00 0.00 57 1014.5
20260507025708 69 17 0.9 1.7 0.00 0.00 0.00 58 1014.5
20260507025504 66 9 0.9 2.6 0.00 0.00 0.00 62 1015.9
20260507025440 69 289 0.0 0.0 0.00 0.00 0.00 58 1014.6
20260507025417 69 289 0.0 0.0 0.00 0.00 0.00 57 1014.6
20260507025340 69 289 0.0 0.0 0.00 0.00 0.00 58 1014.6
20260507025316 69 289 0.0 0.0 0.00 0.00 0.00 58 1014.6
20260507025246 69 289 0.0 0.0 0.00 0.00 0.00 57 1014.6
20260507025031 69 289 0.0 0.0 0.00 0.00 0.00 57 1014.6
20260507025002 66 18 0.9 1.7 0.00 0.00 0.00 62 1015.9
20260507024948 70 289 0.0 0.0 0.00 0.00 0.00 57 1014.6
20260507024911 70 289 0.0 0.0 0.00 0.00 0.00 57 1014.6
20260507024835 70 289 0.0 0.0 0.00 0.00 0.00 57 1014.6
20260507024811 70 289 0.0 0.0 0.00 0.00 0.00 57 1014.6
20260507024741 70 289 0.0 0.9 0.00 0.00 0.00 57 1014.6
20260507024459 66 89 0.0 1.7 0.00 0.00 0.00 62 1016.0
20260507024448 70 292 1.7 0.0 0.00 0.00 0.00 57 1014.6
20260507024045 70 292 1.7 0.0 0.00 0.00 0.00 57 1014.6
20260507023955 66 40 1.7 1.7 0.00 0.00 0.00 61 1015.7
20260507023530 70 292 1.7 0.0 0.00 0.00 0.00 57 1014.6
20260507023452 67 9 1.7 3.5 0.00 0.00 0.00 61 1015.9
20260507023446 70 292 1.7 0.0 0.00 0.00 0.00 57 1014.6
20260507023251 70 292 1.7 2.6 0.00 0.00 0.00 56 1014.6
20260507023202 70 276 0.0 0.0 0.00 0.00 0.00 57 1014.5
20260507023138 70 276 0.0 0.0 0.00 0.00 0.00 57 1014.5
20260507023105 70 276 0.0 0.0 0.00 0.00 0.00 56 1014.5
20260507023022 70 276 0.0 0.0 0.00 0.00 0.00 56 1014.5
20260507022949 67 352 0.0 1.7 0.00 0.00 0.00 60 1015.8
20260507022828 71 276 0.0 0.0 0.00 0.00 0.00 56 1014.5
20260507022751 71 276 0.0 0.0 0.00 0.00 0.00 56 1014.5
20260507022702 71 276 0.0 0.0 0.00 0.00 0.00 56 1014.5
20260507022612 71 276 0.0 0.0 0.00 0.00 0.00 56 1014.5
20260507022548 71 276 0.0 0.0 0.00 0.00 0.00 56 1014.5
20260507022447 67 102 0.0 1.7 0.00 0.00 0.00 60 1015.7
20260507022314 71 276 0.0 0.0 0.00 0.00 0.00 55 1014.5
20260507022250 71 276 0.0 0.0 0.00 0.00 0.00 55 1014.5
20260507022219 71 276 0.0 1.7 0.00 0.00 0.00 55 1014.5
20260507021942 68 82 2.6 2.6 0.00 0.00 0.00 60 1015.5
20260507021744 71 279 0.9 0.0 0.00 0.00 0.00 55 1014.4
20260507021701 71 279 0.9 0.0 0.00 0.00 0.00 55 1014.4
20260507021624 71 279 0.9 0.0 0.00 0.00 0.00 55 1014.4
20260507021550 72 279 0.9 0.0 0.00 0.00 0.00 54 1014.4
20260507021437 68 4 0.0 2.6 0.00 0.00 0.00 59 1015.5
20260507021330 72 279 0.9 0.0 0.00 0.00 0.00 55 1014.4
20260507021300 72 279 0.9 0.0 0.00 0.00 0.00 54 1014.4
20260507021209 72 279 0.9 0.0 0.00 0.00 0.00 54 1014.4
20260507021119 72 279 0.9 0.0 0.00 0.00 0.00 54 1014.4
20260507021055 72 279 0.9 0.0 0.00 0.00 0.00 54 1014.4
20260507021024 73 279 0.9 2.6 0.00 0.00 0.00 53 1014.4
20260507020948 73 49 0.0 0.0 0.00 0.00 0.00 54 1014.3
20260507020935 69 55 0.0 2.6 0.00 0.00 0.00 58 1015.6
20260507020735 73 49 0.0 0.0 0.00 0.00 0.00 53 1014.3
20260507020658 73 49 0.0 0.0 0.00 0.00 0.00 53 1014.3
20260507020628 73 49 0.0 0.0 0.00 0.00 0.00 52 1014.3
20260507020558 73 49 0.0 0.0 0.00 0.00 0.00 53 1014.3
20260507020507 73 49 0.0 0.0 0.00 0.00 0.00 53 1014.3
20260507020432 69 324 0.9 1.7 0.00 0.00 0.00 58 1015.5
20260507020430 73 49 0.0 0.0 0.00 0.00 0.00 53 1014.3
20260507020321 73 49 0.0 0.0 0.00 0.00 0.00 53 1014.3
20260507020238 73 49 0.0 0.0 0.00 0.00 0.00 53 1014.3
20260507020208 73 49 0.0 0.0 0.00 0.00 0.00 53 1014.3
20260507020137 73 49 0.0 0.0 0.00 0.00 0.00 54 1014.3
20260507015943 73 49 0.0 1.7 0.00 0.00 0.00 54 1014.3
20260507015929 69 182 0.0 1.7 0.00 0.00 0.00 57 1015.6
20260507015853 73 316 0.0 0.0 0.00 0.00 0.00 54 1014.5
20260507015823 73 316 0.0 0.0 0.00 0.00 0.00 53 1014.5
20260507015800 73 316 0.0 0.0 0.00 0.00 0.00 54 1014.5
20260507015736 73 316 0.0 0.0 0.00 0.00 0.00 54 1014.5
20260507015712 73 316 0.0 0.0 0.00 0.00 0.00 53 1014.5
20260507015623 73 316 0.0 0.0 0.00 0.00 0.00 53 1014.5
20260507015546 73 316 0.0 0.0 0.00 0.00 0.00 53 1014.5
20260507015509 73 316 0.0 0.0 0.00 0.00 0.00 53 1014.5
20260507015427 69 15 0.0 1.7 0.00 0.00 0.00 57 1015.5
20260507015125 73 316 0.0 0.0 0.00 0.00 0.00 54 1014.5
20260507015101 73 316 0.0 0.0 0.00 0.00 0.00 53 1014.5
20260507015037 73 316 0.0 0.0 0.00 0.00 0.00 54 1014.5
20260507015005 73 316 0.0 0.0 0.00 0.00 0.00 53 1014.5
20260507014941 73 316 0.0 0.0 0.00 0.00 0.00 53 1014.5
20260507014924 70 230 0.0 2.6 0.00 0.00 0.00 57 1015.4
20260507014910 73 316 0.0 1.7 0.00 0.00 0.00 54 1014.5
20260507014820 73 228 1.7 0.0 0.00 0.00 0.00 54 1014.5
20260507014744 73 228 1.7 0.0 0.00 0.00 0.00 54 1014.5
20260507014647 73 228 1.7 0.0 0.00 0.00 0.00 53 1014.5
20260507014624 73 228 1.7 0.0 0.00 0.00 0.00 54 1014.5
20260507014553 73 228 1.7 0.0 0.00 0.00 0.00 53 1014.5
20260507014420 70 282 0.0 2.6 0.00 0.00 0.00 57 1015.4
20260507014326 73 228 1.7 0.0 0.00 0.00 0.00 53 1014.5
20260507014256 73 228 1.7 0.0 0.00 0.00 0.00 53 1014.5
20260507014226 74 228 1.7 0.0 0.00 0.00 0.00 52 1014.5
20260507014150 74 228 1.7 0.0 0.00 0.00 0.00 52 1014.5
20260507014126 74 228 1.7 0.0 0.00 0.00 0.00 52 1014.5
20260507014055 74 228 1.7 0.0 0.00 0.00 0.00 53 1014.5
20260507014031 74 228 1.7 0.0 0.00 0.00 0.00 53 1014.5
20260507014000 73 228 1.7 1.7 0.00 0.00 0.00 53 1014.5
20260507013917 70 253 2.6 2.6 0.00 0.00 0.00 56 1015.4
20260507013910 73 33 1.7 0.0 0.00 0.00 0.00 53 1014.3
20260507013847 73 33 1.7 0.0 0.00 0.00 0.00 53 1014.3
20260507013817 74 33 1.7 0.0 0.00 0.00 0.00 53 1014.3
20260507013739 74 33 1.7 0.0 0.00 0.00 0.00 53 1014.3
20260507013709 74 33 1.7 0.0 0.00 0.00 0.00 52 1014.3
20260507013645 74 33 1.7 0.0 0.00 0.00 0.00 53 1014.3
20260507013602 74 33 1.7 0.0 0.00 0.00 0.00 52 1014.3
20260507013512 74 33 1.7 0.0 0.00 0.00 0.00 52 1014.3
20260507013436 74 33 1.7 0.0 0.00 0.00 0.00 52 1014.3
20260507013414 71 9 0.0 2.6 0.00 0.00 0.00 56 1015.3
20260507013346 74 33 1.7 0.0 0.00 0.00 0.00 52 1014.3
20260507013316 74 33 1.7 0.0 0.00 0.00 0.00 51 1014.3
20260507012951 75 33 1.7 1.7 0.00 0.00 0.00 52 1014.3
20260507012911 71 349 1.7 2.6 0.00 0.00 0.00 55 1015.4
20260507012745 75 353 0.9 0.0 0.00 0.00 0.00 51 1014.1
20260507012655 75 353 0.9 0.0 0.00 0.00 0.00 51 1014.1
20260507012612 75 353 0.9 0.0 0.00 0.00 0.00 51 1014.1
20260507012528 75 353 0.9 0.0 0.00 0.00 0.00 51 1014.1
20260507012438 76 353 0.9 0.0 0.00 0.00 0.00 51 1014.1
20260507012408 72 346 2.6 2.6 0.00 0.00 0.00 55 1015.5
20260507012351 75 353 0.9 0.0 0.00 0.00 0.00 51 1014.1
20260507012306 75 353 0.9 0.0 0.00 0.00 0.00 50 1014.1
20260507011904 73 304 0.9 2.6 0.00 0.00 0.00 53 1015.3
20260507011854 77 353 0.9 0.0 0.00 0.00 0.00 49 1014.1
20260507011654 77 353 0.9 1.7 0.00 0.00 0.00 49 1014.1
20260507011604 77 318 1.7 0.0 0.00 0.00 0.00 49 1014.2
20260507011534 77 318 1.7 0.0 0.00 0.00 0.00 48 1014.2
20260507011448 78 318 1.7 0.0 0.00 0.00 0.00 48 1014.2
20260507011404 78 318 1.7 0.0 0.00 0.00 0.00 47 1014.2
20260507011401 73 339 1.7 2.6 0.00 0.00 0.00 53 1015.3
20260507011321 78 318 1.7 0.0 0.00 0.00 0.00 48 1014.2
20260507011251 77 318 1.7 0.0 0.00 0.00 0.00 48 1014.2
20260507011227 78 318 1.7 0.0 0.00 0.00 0.00 48 1014.2
20260507011121 78 318 1.7 0.0 0.00 0.00 0.00 48 1014.2
20260507010901 73 20 0.9 2.6 0.00 0.00 0.00 54 1015.3
20260507010829 77 318 1.7 0.0 0.00 0.00 0.00 49 1014.2
20260507010746 77 318 1.7 0.0 0.00 0.00 0.00 49 1014.2
20260507010716 77 318 1.7 0.0 0.00 0.00 0.00 49 1014.2
20260507010357 73 299 1.7 1.7 0.00 0.00 0.00 53 1015.4
20260507010300 77 298 1.7 0.0 0.00 0.00 0.00 48 1014.2
20260507010236 77 298 1.7 0.0 0.00 0.00 0.00 48 1014.2
20260507010212 78 298 1.7 0.0 0.00 0.00 0.00 48 1014.2
20260507010129 78 298 1.7 0.0 0.00 0.00 0.00 48 1014.2
20260507010033 77 298 1.7 0.0 0.00 0.00 0.00 48 1014.2
20260507005957 77 298 1.7 0.0 0.00 0.00 0.00 48 1014.2
20260507005926 77 298 1.7 0.0 0.00 0.00 0.00 49 1014.2
20260507005856 77 298 1.7 0.0 0.00 0.00 0.00 48 1014.2
20260507005854 73 338 1.7 3.5 0.00 0.00 0.00 54 1015.3
20260507005819 77 298 1.7 0.0 0.00 0.00 0.00 48 1014.2
20260507005736 77 298 1.7 0.0 0.00 0.00 0.00 48 1014.2
20260507005705 77 298 1.7 0.0 0.00 0.00 0.00 49 1014.2
20260507005634 77 298 1.7 1.7 0.00 0.00 0.00 48 1014.2
20260507005558 77 332 1.7 0.0 0.00 0.00 0.00 48 1014.2
20260507005351 73 334 0.9 3.5 0.00 0.00 0.00 53 1015.2
20260507005011 78 332 1.7 0.0 0.00 0.00 0.00 47 1014.2
20260507004847 73 18 1.7 2.6 0.00 0.00 0.00 53 1015.2
20260507004824 78 332 1.7 0.0 0.00 0.00 0.00 46 1014.2
20260507004753 78 332 1.7 0.0 0.00 0.00 0.00 47 1014.2
20260507004729 78 332 1.7 0.0 0.00 0.00 0.00 46 1014.2
20260507004632 78 332 1.7 0.0 0.00 0.00 0.00 47 1014.2
20260507004555 78 332 1.7 0.0 0.00 0.00 0.00 47 1014.2
20260507004512 78 332 1.7 0.0 0.00 0.00 0.00 47 1014.2
20260507004345 74 228 1.7 2.6 0.00 0.00 0.00 52 1015.3
20260507004129 78 306 1.7 0.0 0.00 0.00 0.00 46 1014.3
20260507004058 78 306 1.7 0.0 0.00 0.00 0.00 47 1014.3
20260507004022 78 306 1.7 0.0 0.00 0.00 0.00 47 1014.3
20260507003932 79 306 1.7 0.0 0.00 0.00 0.00 46 1014.3
20260507003855 79 306 1.7 0.0 0.00 0.00 0.00 46 1014.3
20260507003842 75 238 2.6 3.5 0.00 0.00 0.00 51 1015.4
20260507003819 79 306 1.7 0.0 0.00 0.00 0.00 47 1014.3
20260507003755 79 306 1.7 0.0 0.00 0.00 0.00 47 1014.3
20260507003724 79 306 1.7 0.0 0.00 0.00 0.00 46 1014.3
20260507003445 79 306 1.7 0.0 0.00 0.00 0.00 46 1014.3
20260507003408 79 306 1.7 0.0 0.00 0.00 0.00 46 1014.3
20260507003344 79 306 1.7 0.0 0.00 0.00 0.00 46 1014.3
20260507003337 75 304 0.0 3.5 0.00 0.00 0.00 51 1015.3
20260507003314 79 306 1.7 3.5 0.00 0.00 0.00 46 1014.3
20260507003237 79 285 1.7 0.0 0.00 0.00 0.00 46 1014.1
20260507003203 78 285 1.7 0.0 0.00 0.00 0.00 46 1014.1
20260507003002 78 285 1.7 0.0 0.00 0.00 0.00 46 1014.1
20260507002938 79 285 1.7 0.0 0.00 0.00 0.00 45 1014.1
20260507002832 77 271 1.7 4.3 0.00 0.00 0.00 48 1015.3
20260507002711 78 285 1.7 0.0 0.00 0.00 0.00 46 1014.1
20260507002634 78 285 1.7 0.0 0.00 0.00 0.00 46 1014.1
20260507002557 78 285 1.7 0.0 0.00 0.00 0.00 46 1014.1
20260507002520 78 285 1.7 0.0 0.00 0.00 0.00 46 1014.1
20260507002450 78 285 1.7 0.0 0.00 0.00 0.00 45 1014.1
20260507002329 78 327 1.7 2.6 0.00 0.00 0.00 48 1015.2
20260507002255 78 285 1.7 0.0 0.00 0.00 0.00 46 1014.1
20260507002225 78 285 1.7 2.6 0.00 0.00 0.00 46 1014.1
20260507002135 78 292 1.7 0.0 0.00 0.00 0.00 46 1014.3
20260507002045 78 292 1.7 0.0 0.00 0.00 0.00 46 1014.3
20260507002007 78 292 1.7 0.0 0.00 0.00 0.00 47 1014.3
20260507001937 78 292 1.7 0.0 0.00 0.00 0.00 46 1014.3
20260507001826 77 263 1.7 5.2 0.00 0.00 0.00 48 1015.2
20260507001743 79 292 1.7 0.0 0.00 0.00 0.00 45 1014.3
20260507001646 79 292 1.7 0.0 0.00 0.00 0.00 45 1014.3
20260507001433 79 292 1.7 0.0 0.00 0.00 0.00 45 1014.3
20260507001349 80 292 1.7 0.0 0.00 0.00 0.00 44 1014.3
20260507001323 77 358 1.7 4.3 0.00 0.00 0.00 49 1015.2
20260507001247 80 292 1.7 0.0 0.00 0.00 0.00 44 1014.3
20260507001223 80 292 1.7 0.0 0.00 0.00 0.00 44 1014.3
20260507001153 80 292 1.7 2.6 0.00 0.00 0.00 44 1014.3
20260507001057 80 261 0.9 0.0 0.00 0.00 0.00 44 1014.3
20260507001012 80 261 0.9 0.0 0.00 0.00 0.00 44 1014.3
20260507000819 78 316 0.0 3.5 0.00 0.00 0.00 48 1015.4
20260507000804 80 261 0.9 0.0 0.00 0.00 0.00 45 1014.3
20260507000740 80 261 0.9 0.0 0.00 0.00 0.00 44 1014.3
20260507000717 80 261 0.9 0.0 0.00 0.00 0.00 45 1014.3
20260507000653 80 261 0.9 0.0 0.00 0.00 0.00 44 1014.3
20260507000442 79 261 0.9 0.0 0.00 0.00 0.00 45 1014.3
20260507000409 79 261 0.9 0.0 0.00 0.00 0.00 44 1014.3
20260507000339 79 261 0.9 0.0 0.00 0.00 0.00 45 1014.3
20260507000315 78 313 1.7 3.5 0.00 0.00 0.00 46 1015.1
20260507000302 79 261 0.9 0.0 0.00 0.00 0.00 45 1014.3
20260507000234 79 261 0.9 0.0 0.00 0.00 0.00 45 1014.3
20260507000149 79 261 0.9 0.0 0.00 0.00 0.00 44 1014.3
20260507000126 79 261 0.9 0.0 0.00 0.00 0.00 44 1014.3
20260507000055 79 261 0.9 2.6 0.00 0.00 0.00 45 1014.3
20260506235832 79 271 2.6 0.0 0.00 0.00 0.00 45 1014.3
20260506235812 78 249 0.9 6.1 0.00 0.00 0.00 47 1015.1
20260506235802 79 271 2.6 0.0 0.00 0.00 0.00 46 1014.3
20260506235738 79 271 2.6 0.0 0.00 0.00 0.00 46 1014.3
20260506235531 79 271 2.6 0.0 0.00 0.00 0.00 45 1014.3
20260506235507 79 271 2.6 0.0 0.00 0.00 0.00 45 1014.3
20260506235437 78 271 2.6 0.0 0.00 0.00 0.00 46 1014.3
20260506235347 78 271 2.6 0.0 0.00 0.00 0.00 46 1014.3
20260506235311 78 271 2.6 0.0 0.00 0.00 0.00 46 1014.3
20260506235308 79 322 3.5 4.3 0.00 0.00 0.00 46 1015.3
20260506235241 79 271 2.6 0.0 0.00 0.00 0.00 45 1014.3
20260506235211 80 271 2.6 0.0 0.00 0.00 0.00 44 1014.3
20260506235128 80 271 2.6 0.0 0.00 0.00 0.00 43 1014.3
20260506235058 80 271 2.6 0.0 0.00 0.00 0.00 44 1014.3
20260506235028 80 271 2.6 3.5 0.00 0.00 0.00 44 1014.3
20260506234938 79 278 2.6 0.0 0.00 0.00 0.00 45 1014.4
20260506234908 80 278 2.6 0.0 0.00 0.00 0.00 44 1014.4
20260506234844 80 278 2.6 0.0 0.00 0.00 0.00 45 1014.4
20260506234807 80 278 2.6 0.0 0.00 0.00 0.00 45 1014.4
20260506234805 78 264 3.5 3.5 0.00 0.00 0.00 46 1015.1
20260506234731 80 278 2.6 0.0 0.00 0.00 0.00 44 1014.4
20260506234701 80 278 2.6 0.0 0.00 0.00 0.00 45 1014.4
20260506234441 80 278 2.6 0.0 0.00 0.00 0.00 44 1014.4
20260506234358 80 278 2.6 0.0 0.00 0.00 0.00 44 1014.4
20260506234302 78 278 2.6 3.5 0.00 0.00 0.00 46 1015.1
20260506234203 80 278 2.6 0.0 0.00 0.00 0.00 45 1014.4
20260506234120 80 278 2.6 0.0 0.00 0.00 0.00 44 1014.4
20260506234051 80 278 2.6 0.0 0.00 0.00 0.00 45 1014.4
20260506234012 80 278 2.6 2.6 0.00 0.00 0.00 44 1014.4
20260506233922 80 254 3.5 0.0 0.00 0.00 0.00 44 1014.5
20260506233800 78 284 1.7 8.7 0.00 0.00 0.00 46 1015.2
20260506233728 80 254 3.5 0.0 0.00 0.00 0.00 44 1014.5
20260506233652 80 254 3.5 0.0 0.00 0.00 0.00 44 1014.5
20260506233256 79 249 0.9 4.3 0.00 0.00 0.00 45 1015.0
20260506233242 80 254 3.5 0.0 0.00 0.00 0.00 45 1014.5
20260506233159 80 254 3.5 0.0 0.00 0.00 0.00 45 1014.5
20260506233135 80 254 3.5 0.0 0.00 0.00 0.00 45 1014.5
20260506232939 79 254 3.5 0.0 0.00 0.00 0.00 45 1014.5
20260506232908 80 254 3.5 0.0 0.00 0.00 0.00 44 1014.5
20260506232845 80 254 3.5 0.0 0.00 0.00 0.00 44 1014.5
20260506232814 80 254 3.5 5.2 0.00 0.00 0.00 44 1014.5
20260506232748 80 208 0.9 3.5 0.00 0.00 0.00 44 1015.2
20260506232738 80 331 2.6 0.0 0.00 0.00 0.00 45 1014.4
20260506232714 80 331 2.6 0.0 0.00 0.00 0.00 44 1014.4
20260506232638 80 331 2.6 0.0 0.00 0.00 0.00 45 1014.4
20260506232555 80 331 2.6 0.0 0.00 0.00 0.00 44 1014.4
20260506232452 80 331 2.6 0.0 0.00 0.00 0.00 44 1014.4
20260506232429 80 331 2.6 0.0 0.00 0.00 0.00 45 1014.4
20260506232352 80 331 2.6 0.0 0.00 0.00 0.00 44 1014.4
20260506232256 80 331 2.6 0.0 0.00 0.00 0.00 45 1014.4
20260506232247 79 181 0.9 3.5 0.00 0.00 0.00 45 1015.1
20260506232232 80 331 2.6 0.0 0.00 0.00 0.00 45 1014.4
20260506232202 80 331 2.6 0.0 0.00 0.00 0.00 44 1014.4
20260506232118 81 331 2.6 0.0 0.00 0.00 0.00 44 1014.4
20260506231905 81 331 2.6 0.0 0.00 0.00 0.00 44 1014.4
20260506231835 81 331 2.6 2.6 0.00 0.00 0.00 44 1014.4
20260506231756 81 296 1.7 0.0 0.00 0.00 0.00 45 1014.6
20260506231745 79 39 0.0 4.3 0.00 0.00 0.00 46 1015.2
20260506231733 80 296 1.7 0.0 0.00 0.00 0.00 45 1014.6
20260506231709 80 296 1.7 0.0 0.00 0.00 0.00 45 1014.6
20260506231645 80 296 1.7 0.0 0.00 0.00 0.00 44 1014.6
20260506231554 80 296 1.7 0.0 0.00 0.00 0.00 45 1014.6
20260506231518 80 296 1.7 0.0 0.00 0.00 0.00 45 1014.6
20260506231436 80 296 1.7 0.0 0.00 0.00 0.00 45 1014.6
20260506231243 79 304 3.5 5.2 0.00 0.00 0.00 45 1015.2
20260506231214 80 296 1.7 0.0 0.00 0.00 0.00 45 1014.6
20260506231143 81 296 1.7 0.0 0.00 0.00 0.00 44 1014.6
20260506230942 80 296 1.7 0.0 0.00 0.00 0.00 44 1014.6
20260506230912 81 296 1.7 0.0 0.00 0.00 0.00 45 1014.6
20260506230842 81 296 1.7 0.0 0.00 0.00 0.00 44 1014.6
20260506230740 80 336 1.7 4.3 0.00 0.00 0.00 44 1015.1
20260506230641 80 296 1.7 1.7 0.00 0.00 0.00 45 1014.6
20260506230552 80 290 2.6 0.0 0.00 0.00 0.00 45 1014.8
20260506230515 80 290 2.6 0.0 0.00 0.00 0.00 44 1014.8
20260506230242 80 290 2.6 0.0 0.00 0.00 0.00 45 1014.8
20260506230236 80 290 1.7 3.5 0.00 0.00 0.00 44 1015.2
20260506230206 80 290 2.6 0.0 0.00 0.00 0.00 45 1014.8
20260506230142 80 290 2.6 0.0 0.00 0.00 0.00 45 1014.8
20260506230112 80 290 2.6 0.0 0.00 0.00 0.00 44 1014.8
20260506225823 80 290 2.6 0.0 0.00 0.00 0.00 45 1014.8
20260506225733 80 19 0.9 4.3 0.00 0.00 0.00 45 1015.3
20260506225622 80 290 2.6 0.0 0.00 0.00 0.00 45 1014.8
20260506225546 80 290 2.6 0.0 0.00 0.00 0.00 45 1014.8
20260506225516 80 290 2.6 0.0 0.00 0.00 0.00 44 1014.8
20260506225445 80 290 2.6 4.3 0.00 0.00 0.00 44 1014.8
20260506225408 80 257 3.5 0.0 0.00 0.00 0.00 45 1014.9
20260506225345 80 257 3.5 0.0 0.00 0.00 0.00 44 1014.9
20260506225321 80 257 3.5 0.0 0.00 0.00 0.00 44 1014.9
20260506225257 80 257 3.5 0.0 0.00 0.00 0.00 45 1014.9
20260506225230 80 300 1.7 3.5 0.00 0.00 0.00 45 1015.3
20260506225227 80 257 3.5 0.0 0.00 0.00 0.00 44 1014.9
20260506225204 81 257 3.5 0.0 0.00 0.00 0.00 45 1014.9
20260506225140 81 257 3.5 0.0 0.00 0.00 0.00 45 1014.9
20260506225109 81 257 3.5 0.0 0.00 0.00 0.00 44 1014.9
20260506225046 81 257 3.5 0.0 0.00 0.00 0.00 44 1014.9
20260506224726 80 337 0.9 4.3 0.00 0.00 0.00 45 1015.3
20260506224648 80 257 3.5 0.0 0.00 0.00 0.00 45 1014.9
20260506224618 80 257 3.5 0.0 0.00 0.00 0.00 43 1014.9
20260506224506 80 257 3.5 0.0 0.00 0.00 0.00 44 1014.9
20260506224442 80 257 3.5 0.0 0.00 0.00 0.00 44 1014.9
20260506224412 80 257 3.5 0.0 0.00 0.00 0.00 43 1014.9
20260506224342 80 257 3.5 0.0 0.00 0.00 0.00 44 1014.9
20260506224224 80 8 1.7 4.3 0.00 0.00 0.00 44 1015.4
20260506224135 81 345 1.7 0.0 0.00 0.00 0.00 44 1015.1
20260506224111 80 345 1.7 0.0 0.00 0.00 0.00 44 1015.1
20260506223857 80 345 1.7 0.0 0.00 0.00 0.00 44 1015.1
20260506223807 80 345 1.7 0.0 0.00 0.00 0.00 45 1015.1
20260506223720 80 216 1.7 4.3 0.00 0.00 0.00 44 1015.5
20260506223606 80 345 1.7 0.0 0.00 0.00 0.00 45 1015.1
20260506223524 80 345 1.7 0.0 0.00 0.00 0.00 44 1015.1
20260506223427 80 345 1.7 0.0 0.00 0.00 0.00 44 1015.1
20260506223225 81 345 1.7 0.0 0.00 0.00 0.00 43 1015.1
20260506223216 80 289 0.9 5.2 0.00 0.00 0.00 45 1015.6
20260506223024 81 345 1.7 0.0 0.00 0.00 0.00 43 1015.1
20260506222817 81 248 2.6 0.0 0.00 0.00 0.00 43 1015.0
20260506222754 81 248 2.6 0.0 0.00 0.00 0.00 42 1015.0
20260506222713 80 292 1.7 3.5 0.00 0.00 0.00 45 1015.6
20260506222521 81 248 2.6 0.0 0.00 0.00 0.00 43 1015.0
20260506222425 81 248 2.6 0.0 0.00 0.00 0.00 44 1015.0
20260506222328 81 248 2.6 0.0 0.00 0.00 0.00 43 1015.0
20260506222208 81 275 5.2 5.2 0.00 0.00 0.00 44 1015.5
20260506222134 81 248 2.6 0.0 0.00 0.00 0.00 42 1015.0
20260506222042 81 248 2.6 0.0 0.00 0.00 0.00 42 1015.0
20260506222008 80 248 2.6 0.0 0.00 0.00 0.00 44 1015.0
20260506221938 80 248 2.6 0.0 0.00 0.00 0.00 43 1015.0
20260506221848 80 248 2.6 0.0 0.00 0.00 0.00 43 1015.0
20260506221824 80 248 2.6 0.0 0.00 0.00 0.00 43 1015.0
20260506221754 80 248 2.6 3.5 0.00 0.00 0.00 43 1015.0
20260506221717 80 272 0.9 0.0 0.00 0.00 0.00 43 1015.3
20260506221707 80 279 0.9 4.3 0.00 0.00 0.00 45 1015.7
20260506221647 80 272 0.9 0.0 0.00 0.00 0.00 44 1015.3
20260506221617 80 272 0.9 0.0 0.00 0.00 0.00 43 1015.3
20260506221553 80 272 0.9 0.0 0.00 0.00 0.00 44 1015.3
20260506221457 80 272 0.9 0.0 0.00 0.00 0.00 43 1015.3
20260506221427 81 272 0.9 0.0 0.00 0.00 0.00 43 1015.3
20260506221357 81 272 0.9 0.0 0.00 0.00 0.00 42 1015.3
20260506221204 80 247 2.6 3.5 0.00 0.00 0.00 44 1015.6
20260506221149 82 272 0.9 0.0 0.00 0.00 0.00 42 1015.3
20260506221119 82 272 0.9 0.0 0.00 0.00 0.00 41 1015.3
20260506221049 82 272 0.9 0.0 0.00 0.00 0.00 42 1015.3
20260506220810 82 272 0.9 0.0 0.00 0.00 0.00 42 1015.3
20260506220701 80 252 2.6 3.5 0.00 0.00 0.00 44 1015.7
20260506220608 82 272 0.9 0.0 0.00 0.00 0.00 40 1015.3
20260506220537 82 272 0.9 0.0 0.00 0.00 0.00 41 1015.3
20260506220506 82 272 0.9 1.7 0.00 0.00 0.00 41 1015.3
20260506220429 82 189 4.3 0.0 0.00 0.00 0.00 41 1015.3
20260506220358 82 189 4.3 0.0 0.00 0.00 0.00 42 1015.3
20260506220328 81 189 4.3 0.0 0.00 0.00 0.00 42 1015.3
20260506220258 81 189 4.3 0.0 0.00 0.00 0.00 43 1015.3
20260506220228 81 189 4.3 0.0 0.00 0.00 0.00 42 1015.3
20260506220158 81 189 4.3 0.0 0.00 0.00 0.00 43 1015.3
20260506220156 81 326 1.7 3.5 0.00 0.00 0.00 44 1015.8
20260506220127 80 189 4.3 0.0 0.00 0.00 0.00 43 1015.3
20260506220056 80 189 4.3 0.0 0.00 0.00 0.00 42 1015.3
20260506220026 80 189 4.3 0.0 0.00 0.00 0.00 43 1015.3
20260506215954 80 189 4.3 0.0 0.00 0.00 0.00 44 1015.3
20260506215924 80 189 4.3 0.0 0.00 0.00 0.00 43 1015.3
20260506215854 79 189 4.3 0.0 0.00 0.00 0.00 43 1015.3
20260506215804 79 189 4.3 0.0 0.00 0.00 0.00 42 1015.3
20260506215714 79 189 4.3 0.0 0.00 0.00 0.00 42 1015.3
20260506215653 81 271 0.9 3.5 0.00 0.00 0.00 43 1015.8
20260506215638 79 189 4.3 0.0 0.00 0.00 0.00 42 1015.3
20260506215607 79 189 4.3 0.0 0.00 0.00 0.00 42 1015.3
20260506215537 81 189 4.3 5.2 0.00 0.00 0.00 40 1015.3
20260506215501 81 9 3.5 0.0 0.00 0.00 0.00 40 1015.3
20260506215307 82 9 3.5 0.0 0.00 0.00 0.00 40 1015.3
20260506215148 80 296 1.7 3.5 0.00 0.00 0.00 43 1016.0
20260506215046 81 9 3.5 0.0 0.00 0.00 0.00 42 1015.3
20260506215015 80 9 3.5 0.0 0.00 0.00 0.00 42 1015.3
20260506214815 80 9 3.5 0.0 0.00 0.00 0.00 41 1015.3
20260506214645 80 234 2.6 5.2 0.00 0.00 0.00 43 1016.0
20260506214608 80 9 3.5 0.0 0.00 0.00 0.00 42 1015.3
20260506214538 80 9 3.5 0.0 0.00 0.00 0.00 41 1015.3
20260506214514 81 9 3.5 0.0 0.00 0.00 0.00 42 1015.3
20260506214425 81 9 3.5 0.0 0.00 0.00 0.00 41 1015.3
20260506214329 81 9 3.5 0.0 0.00 0.00 0.00 42 1015.3
20260506214143 82 289 1.7 2.6 0.00 0.00 0.00 41 1016.0
20260506214128 81 9 3.5 3.5 0.00 0.00 0.00 41 1015.3
20260506214051 81 343 1.7 0.0 0.00 0.00 0.00 40 1015.6
20260506213851 80 343 1.7 0.0 0.00 0.00 0.00 41 1015.6
20260506213819 80 343 1.7 0.0 0.00 0.00 0.00 42 1015.6
20260506213756 80 343 1.7 0.0 0.00 0.00 0.00 42 1015.6
20260506213725 80 343 1.7 0.0 0.00 0.00 0.00 43 1015.6
20260506213654 80 343 1.7 0.0 0.00 0.00 0.00 42 1015.6
20260506213641 81 237 2.6 3.5 0.00 0.00 0.00 43 1016.4
20260506213624 80 343 1.7 0.0 0.00 0.00 0.00 43 1015.6
20260506213553 79 343 1.7 0.0 0.00 0.00 0.00 43 1015.6
20260506213524 79 343 1.7 0.0 0.00 0.00 0.00 42 1015.6
20260506213304 79 343 1.7 0.0 0.00 0.00 0.00 42 1015.6
20260506213240 79 343 1.7 0.0 0.00 0.00 0.00 42 1015.6
20260506213216 79 343 1.7 0.0 0.00 0.00 0.00 43 1015.6
20260506213138 79 43 1.7 6.1 0.00 0.00 0.00 42 1016.0
20260506213127 79 343 1.7 0.0 0.00 0.00 0.00 42 1015.6
20260506213057 79 343 1.7 0.0 0.00 0.00 0.00 42 1015.6
20260506213026 80 343 1.7 3.5 0.00 0.00 0.00 42 1015.6
20260506212948 80 303 1.7 0.0 0.00 0.00 0.00 42 1015.5
20260506212917 80 303 1.7 0.0 0.00 0.00 0.00 43 1015.5
20260506212635 80 268 0.9 1.7 0.00 0.00 0.00 42 1016.4
20260506212625 79 303 1.7 0.0 0.00 0.00 0.00 42 1015.5
20260506212424 78 303 1.7 0.0 0.00 0.00 0.00 42 1015.5
20260506212341 78 303 1.7 0.0 0.00 0.00 0.00 42 1015.5
20260506212318 78 303 1.7 0.0 0.00 0.00 0.00 43 1015.5
20260506212130 81 0 0.9 3.5 0.00 0.00 0.00 42 1016.3
20260506212117 78 303 1.7 0.0 0.00 0.00 0.00 43 1015.5
20260506212048 77 303 1.7 0.0 0.00 0.00 0.00 42 1015.5
20260506211949 78 303 1.7 0.0 0.00 0.00 0.00 42 1015.5
20260506211919 78 303 1.7 0.0 0.00 0.00 0.00 42 1015.5
20260506211847 78 303 1.7 0.0 0.00 0.00 0.00 41 1015.5
20260506211817 78 303 1.7 0.0 0.00 0.00 0.00 42 1015.5
20260506211626 80 252 1.7 3.5 0.00 0.00 0.00 42 1016.5
20260506211557 78 304 0.9 0.0 0.00 0.00 0.00 42 1015.5
20260506211507 78 304 0.9 0.0 0.00 0.00 0.00 43 1015.5
20260506211411 78 304 0.9 0.0 0.00 0.00 0.00 43 1015.5
20260506211341 78 304 0.9 0.0 0.00 0.00 0.00 44 1015.5
20260506211310 78 304 0.9 0.0 0.00 0.00 0.00 43 1015.5
20260506211214 77 304 0.9 0.0 0.00 0.00 0.00 43 1015.5
20260506211123 79 277 3.5 3.5 0.00 0.00 0.00 42 1016.3
20260506210837 78 304 0.9 0.0 0.00 0.00 0.00 41 1015.5
20260506210741 78 304 0.9 0.0 0.00 0.00 0.00 41 1015.5
20260506210658 79 304 0.9 0.0 0.00 0.00 0.00 41 1015.5
20260506210628 78 304 0.9 0.0 0.00 0.00 0.00 42 1015.5
20260506210620 79 5 0.0 1.7 0.00 0.00 0.00 41 1016.5
20260506210545 78 304 0.9 1.7 0.00 0.00 0.00 43 1015.5
20260506210509 78 192 2.6 0.0 0.00 0.00 0.00 43 1015.8
20260506210315 77 192 2.6 0.0 0.00 0.00 0.00 43 1015.8
20260506210245 78 192 2.6 0.0 0.00 0.00 0.00 42 1015.8
20260506210116 78 253 2.6 5.2 0.00 0.00 0.00 42 1016.6
20260506205911 78 192 2.6 0.0 0.00 0.00 0.00 44 1015.8
20260506205841 78 192 2.6 0.0 0.00 0.00 0.00 43 1015.8
20260506205811 78 192 2.6 0.0 0.00 0.00 0.00 42 1015.8
20260506205741 78 192 2.6 0.0 0.00 0.00 0.00 43 1015.8
20260506205658 78 192 2.6 0.0 0.00 0.00 0.00 42 1015.8
20260506205613 78 267 3.5 4.3 0.00 0.00 0.00 43 1016.2
20260506205602 77 192 2.6 0.0 0.00 0.00 0.00 43 1015.8
20260506205532 77 192 2.6 0.0 0.00 0.00 0.00 43 1015.8
20260506205502 77 192 2.6 0.0 0.00 0.00 0.00 44 1015.8
20260506205431 76 192 2.6 0.0 0.00 0.00 0.00 44 1015.8
20260506205408 77 192 2.6 0.0 0.00 0.00 0.00 43 1015.8
20260506205337 76 192 2.6 0.0 0.00 0.00 0.00 44 1015.8
20260506205306 76 192 2.6 2.6 0.00 0.00 0.00 43 1015.8
20260506205203 76 143 3.5 0.0 0.00 0.00 0.00 44 1015.8
20260506205108 79 161 0.9 1.7 0.00 0.00 0.00 42 1016.7
20260506205006 76 143 3.5 0.0 0.00 0.00 0.00 45 1015.8
20260506204804 75 143 3.5 0.0 0.00 0.00 0.00 44 1015.8
20260506204721 75 143 3.5 0.0 0.00 0.00 0.00 44 1015.8
20260506204645 75 143 3.5 0.0 0.00 0.00 0.00 44 1015.8
20260506204621 75 143 3.5 0.0 0.00 0.00 0.00 45 1015.8
20260506204606 78 323 1.7 4.3 0.00 0.00 0.00 43 1016.6
20260506204558 75 143 3.5 0.0 0.00 0.00 0.00 44 1015.8
20260506204528 75 143 3.5 0.0 0.00 0.00 0.00 45 1015.8
20260506204458 75 143 3.5 0.0 0.00 0.00 0.00 44 1015.8
20260506204415 74 143 3.5 0.0 0.00 0.00 0.00 45 1015.8
20260506204319 75 143 3.5 0.0 0.00 0.00 0.00 44 1015.8
20260506204103 77 247 3.5 3.5 0.00 0.00 0.00 43 1016.6
20260506203915 75 233 4.3 0.0 0.00 0.00 0.00 45 1016.1
20260506203832 75 233 4.3 0.0 0.00 0.00 0.00 44 1016.1
20260506203802 75 233 4.3 0.0 0.00 0.00 0.00 44 1016.1
20260506203732 75 233 4.3 0.0 0.00 0.00 0.00 43 1016.1
20260506203702 75 233 4.3 0.0 0.00 0.00 0.00 44 1016.1
20260506203632 76 233 4.3 0.0 0.00 0.00 0.00 44 1016.1
20260506203608 76 233 4.3 0.0 0.00 0.00 0.00 43 1016.1
20260506203602 75 225 2.6 4.3 0.00 0.00 0.00 44 1016.6
20260506203538 76 233 4.3 0.0 0.00 0.00 0.00 44 1016.1
20260506203514 76 233 4.3 0.0 0.00 0.00 0.00 44 1016.1
20260506203444 75 233 4.3 0.0 0.00 0.00 0.00 45 1016.1
20260506203348 75 233 4.3 0.0 0.00 0.00 0.00 46 1016.1
20260506203154 74 233 4.3 0.0 0.00 0.00 0.00 44 1016.1
20260506203124 74 233 4.3 0.0 0.00 0.00 0.00 45 1016.1
20260506203057 75 198 2.6 5.2 0.00 0.00 0.00 44 1016.8
20260506202924 75 233 4.3 0.0 0.00 0.00 0.00 45 1016.1
20260506202853 75 233 4.3 7.0 0.00 0.00 0.00 45 1016.1
20260506202816 75 185 3.5 0.0 0.00 0.00 0.00 46 1016.1
20260506202746 74 185 3.5 0.0 0.00 0.00 0.00 45 1016.1
20260506202650 74 185 3.5 0.0 0.00 0.00 0.00 45 1016.1
20260506202626 74 185 3.5 0.0 0.00 0.00 0.00 46 1016.1
20260506202602 74 185 3.5 0.0 0.00 0.00 0.00 45 1016.1
20260506202555 76 187 0.9 3.5 0.00 0.00 0.00 44 1017.0
20260506202539 74 185 3.5 0.0 0.00 0.00 0.00 45 1016.1
20260506202515 74 185 3.5 0.0 0.00 0.00 0.00 46 1016.1
20260506202451 74 185 3.5 0.0 0.00 0.00 0.00 45 1016.1
20260506202421 73 185 3.5 0.0 0.00 0.00 0.00 45 1016.1
20260506202051 75 195 1.7 7.0 0.00 0.00 0.00 45 1017.0
20260506202038 74 185 3.5 0.0 0.00 0.00 0.00 45 1016.1
20260506201937 74 185 3.5 0.0 0.00 0.00 0.00 46 1016.1
20260506201854 73 185 3.5 0.0 0.00 0.00 0.00 46 1016.1
20260506201824 73 185 3.5 0.0 0.00 0.00 0.00 45 1016.1
20260506201754 74 185 3.5 5.2 0.00 0.00 0.00 45 1016.1
20260506201718 74 124 7.0 0.0 0.00 0.00 0.00 46 1016.2
20260506201647 74 124 7.0 0.0 0.00 0.00 0.00 45 1016.2
20260506201611 74 124 7.0 0.0 0.00 0.00 0.00 45 1016.2
20260506201549 74 203 1.7 4.3 0.00 0.00 0.00 46 1017.1
20260506201534 74 124 7.0 0.0 0.00 0.00 0.00 45 1016.2
20260506201444 74 124 7.0 0.0 0.00 0.00 0.00 45 1016.2
20260506201354 74 124 7.0 0.0 0.00 0.00 0.00 45 1016.2
20260506201200 74 124 7.0 0.0 0.00 0.00 0.00 45 1016.2
20260506201130 74 124 7.0 0.0 0.00 0.00 0.00 44 1016.2
20260506201100 74 124 7.0 0.0 0.00 0.00 0.00 46 1016.2
20260506201045 73 160 1.7 7.0 0.00 0.00 0.00 46 1017.1
20260506201011 74 124 7.0 0.0 0.00 0.00 0.00 45 1016.2
20260506200639 73 124 7.0 0.0 0.00 0.00 0.00 46 1016.2
20260506200609 74 124 7.0 0.0 0.00 0.00 0.00 45 1016.2
20260506200542 74 212 3.5 5.2 0.00 0.00 0.00 45 1017.2
20260506200539 74 124 7.0 7.8 0.00 0.00 0.00 45 1016.2
20260506200436 74 164 3.5 0.0 0.00 0.00 0.00 45 1016.2
20260506200406 74 164 3.5 0.0 0.00 0.00 0.00 46 1016.2
20260506200038 73 216 0.9 7.8 0.00 0.00 0.00 46 1017.2
20260506200032 73 164 3.5 0.0 0.00 0.00 0.00 46 1016.2
20260506195943 73 164 3.5 0.0 0.00 0.00 0.00 46 1016.2
20260506195742 73 164 3.5 0.0 0.00 0.00 0.00 47 1016.2
20260506195653 73 164 3.5 0.0 0.00 0.00 0.00 46 1016.2
20260506195610 73 164 3.5 0.0 0.00 0.00 0.00 46 1016.2
20260506195535 73 114 2.6 5.2 0.00 0.00 0.00 46 1017.2
20260506195335 74 164 3.5 0.0 0.00 0.00 0.00 45 1016.2
20260506195306 74 164 3.5 0.0 0.00 0.00 0.00 46 1016.2
20260506195234 74 164 3.5 4.3 0.00 0.00 0.00 46 1016.2
20260506195032 74 177 5.2 5.2 0.00 0.00 0.00 45 1017.2
20260506195014 73 137 0.0 0.0 0.00 0.00 0.00 46 1016.4
20260506194938 73 137 0.0 0.0 0.00 0.00 0.00 46 1016.4
20260506194907 74 137 0.0 0.0 0.00 0.00 0.00 46 1016.4
20260506194837 74 137 0.0 0.0 0.00 0.00 0.00 45 1016.4
20260506194745 75 137 0.0 0.0 0.00 0.00 0.00 45 1016.4
20260506194715 75 137 0.0 0.0 0.00 0.00 0.00 44 1016.4
20260506194645 75 137 0.0 0.0 0.00 0.00 0.00 45 1016.4
20260506194549 75 137 0.0 0.0 0.00 0.00 0.00 45 1016.4
20260506194529 75 41 3.5 4.3 0.00 0.00 0.00 45 1017.3
20260506194454 75 137 0.0 0.0 0.00 0.00 0.00 45 1016.4
20260506194253 75 137 0.0 0.0 0.00 0.00 0.00 47 1016.4
20260506194033 74 137 0.0 0.0 0.00 0.00 0.00 47 1016.4
20260506194026 75 230 0.9 2.6 0.00 0.00 0.00 47 1017.3
20260506193950 74 137 0.0 1.7 0.00 0.00 0.00 47 1016.4
20260506193913 74 0.0 0.0 0.00 0.00 0.00 46
20260506193523 74 229 1.7 3.5 0.00 0.00 0.00 47 1017.4
20260506193020 72 209 3.5 5.2 0.00 0.00 0.00 47 1017.3
20260506192517 72 156 0.9 5.2 0.00 0.00 0.00 47 1017.6
20260506192013 71 227 1.7 7.0 0.00 0.00 0.00 48 1017.6
20260506191510 71 193 4.3 6.1 0.00 0.00 0.00 49 1017.8
20260506191006 72 149 2.6 4.3 0.00 0.00 0.00 48 1017.6
20260506190503 71 0 0.0 3.5 0.00 0.00 0.00 48 1017.6
20260506185959 70 14 3.5 3.5 0.00 0.00 0.00 49 1017.6
20260506185457 71 184 4.3 4.3 0.00 0.00 0.00 48 1017.7
20260506184954 73 239 2.6 4.3 0.00 0.00 0.00 46 1017.8
20260506184451 72 289 0.0 2.6 0.00 0.00 0.00 48 1017.9
20260506183948 71 203 0.0 4.3 0.00 0.00 0.00 50 1017.9
20260506183443 70 147 1.7 7.0 0.00 0.00 0.00 51 1017.8
20260506182941 69 121 2.6 7.8 0.00 0.00 0.00 50 1017.9
20260506182438 70 111 0.9 3.5 0.00 0.00 0.00 49 1017.9
20260506181935 69 210 3.5 5.2 0.00 0.00 0.00 51 1018.0
20260506181433 69 225 2.6 5.2 0.00 0.00 0.00 51 1018.0
20260506180930 69 173 4.3 6.1 0.00 0.00 0.00 51 1018.0
20260506180426 70 251 1.7 3.5 0.00 0.00 0.00 49 1018.3
20260506175923 69 80 2.6 5.2 0.00 0.00 0.00 52 1018.2
20260506175420 69 160 2.6 3.5 0.00 0.00 0.00 52 1018.0
20260506174916 68 332 1.7 2.6 0.00 0.00 0.00 52 1018.1
20260506174414 67 163 3.5 4.3 0.00 0.00 0.00 54 1018.4
20260506173911 67 117 2.6 5.2 0.00 0.00 0.00 53 1018.3
20260506173408 68 189 3.5 3.5 0.00 0.00 0.00 52 1018.3
20260506172905 68 142 0.9 2.6 0.00 0.00 0.00 53 1018.3
20260506172401 69 191 0.9 2.6 0.00 0.00 0.00 51 1018.2
20260506171859 68 351 0.0 2.6 0.00 0.00 0.00 52 1018.2
20260506171356 65 166 0.0 3.5 0.00 0.00 0.00 56 1018.5
20260506170854 65 156 1.7 6.1 0.00 0.00 0.00 57 1018.2
20260506170350 66 312 0.9 1.7 0.00 0.00 0.00 56 1018.3
20260506165849 66 297 0.9 5.2 0.00 0.00 0.00 56 1018.4
20260506165347 67 112 0.9 2.6 0.00 0.00 0.00 55 1018.3
20260506164843 66 114 0.0 1.7 0.00 0.00 0.00 57 1018.2
20260506164339 65 139 1.7 5.2 0.00 0.00 0.00 58 1018.2
20260506163837 66 28 1.7 2.6 0.00 0.00 0.00 57 1018.2
20260506163331 65 332 0.0 2.6 0.00 0.00 0.00 58 1018.3
20260506162827 66 36 2.6 2.6 0.00 0.00 0.00 57 1018.4
20260506162325 65 205 2.6 3.5 0.00 0.00 0.00 58 1018.3
20260506161823 63 173 3.5 3.5 0.00 0.00 0.00 61 1018.2
20260506161320 64 128 0.9 2.6 0.00 0.00 0.00 60 1018.2
20260506160817 63 54 0.0 2.6 0.00 0.00 0.00 62 1018.2
20260506160314 62 184 1.7 3.5 0.00 0.00 0.00 62 1018.3
20260506155813 62 185 0.9 3.5 0.00 0.00 0.00 63 1018.3
20260506155309 63 72 0.0 5.2 0.00 0.00 0.00 63 1018.2
20260506153421 63 115 0.0 1.7 0.00 0.00 0.00 64 1018.5
20260506152919 62 136 0.9 3.5 0.00 0.00 0.00 65 1018.5
20260506152415 61 125 1.7 3.5 0.00 0.00 0.00 66 1018.4
20260506151914 61 78 2.6 3.5 0.00 0.00 0.00 65 1018.4
20260506151410 62 113 0.0 1.7 0.00 0.00 0.00 64 1018.5
20260506150908 60 120 3.5 3.5 0.00 0.00 0.00 66 1018.5
20260506150404 60 131 0.9 2.6 0.00 0.00 0.00 68 1018.3
20260506145901 60 155 1.7 2.6 0.00 0.00 0.00 67 1018.4
20260506145357 61 121 0.9 2.6 0.00 0.00 0.00 66 1018.5
20260506144855 60 129 1.7 2.6 0.00 0.00 0.00 68 1018.4
20260506144351 59 93 0.0 2.6 0.00 0.00 0.00 70 1018.4
20260506143850 59 151 1.7 1.7 0.00 0.00 0.00 69 1018.5
20260506143346 62 181 1.7 1.7 0.00 0.00 0.00 63 1018.5
20260506142845 61 132 0.0 0.9 0.00 0.00 0.00 63 1018.1
20260506142342 61 72 0.0 1.7 0.00 0.00 0.00 64 1018.5
20260506141840 59 84 0.9 1.7 0.00 0.00 0.00 68 1018.3
20260506141338 56 77 0.0 1.7 0.00 0.00 0.00 72 1018.3
20260506140836 55 89 1.7 1.7 0.00 0.00 0.00 74 1018.3
20260506140333 53 79 1.7 1.7 0.00 0.00 0.00 78 1018.3
20260506135829 53 18 0.9 1.7 0.00 0.00 0.00 78 1018.1
20260506135326 51 304 0.0 2.6 0.00 0.00 0.00 81 1018.2
20260506134823 51 28 4.3 5.2 0.00 0.00 0.00 82 1018.0
20260506134319 50 48 0.0 2.6 0.00 0.00 0.00 83 1018.0
20260506133816 50 89 0.9 2.6 0.00 0.00 0.00 83 1018.1
20260506133313 50 53 0.9 2.6 0.00 0.00 0.00 84 1017.9
20260506132810 49 16 1.7 2.6 0.00 0.00 0.00 84 1018.0
20260506132307 49 0 1.7 2.6 0.00 0.00 0.00 85 1018.0
20260506131805 49 1 2.6 3.5 0.00 0.00 0.00 86 1017.8
20260506131301 48 6 0.0 1.7 0.00 0.00 0.00 86 1017.9
20260506130758 49 92 0.9 3.5 0.00 0.00 0.00 86 1017.8
20260506130254 49 89 0.0 2.6 0.00 0.00 0.00 86 1017.9
20260506125753 49 45 2.6 3.5 0.00 0.00 0.00 86 1017.7
20260506125250 49 62 0.9 1.7 0.00 0.00 0.00 86 1017.5
20260506124748 49 19 1.7 1.7 0.00 0.00 0.00 85 1017.7
20260506124245 49 27 0.9 2.6 0.00 0.00 0.00 85 1017.6
20260506123743 49 26 1.7 3.5 0.00 0.00 0.00 85 1017.6
20260506123242 49 78 0.0 1.7 0.00 0.00 0.00 84 1017.5
20260506122738 50 55 0.0 2.6 0.00 0.00 0.00 84 1017.5
20260506122235 50 57 0.0 4.3 0.00 0.00 0.00 84 1017.5
20260506121733 49 0 4.3 5.2 0.00 0.00 0.00 84 1017.6
20260506121230 49 18 3.5 5.2 0.00 0.00 0.00 84 1017.3
20260506120727 50 23 2.6 2.6 0.00 0.00 0.00 84 1017.5
20260506120225 50 15 2.6 4.3 0.00 0.00 0.00 84 1017.2
20260506115723 50 357 0.9 1.7 0.00 0.00 0.00 84 1017.4
20260506115221 50 26 1.7 2.6 0.00 0.00 0.00 84 1017.5
20260506114718 50 50 1.7 3.5 0.00 0.00 0.00 84 1017.4
20260506114215 50 334 1.7 4.3 0.00 0.00 0.00 83 1017.4
20260506113714 50 8 2.6 4.3 0.00 0.00 0.00 83 1017.4
20260506113211 50 357 2.6 5.2 0.00 0.00 0.00 83 1017.4
20260506112707 50 22 2.6 3.5 0.00 0.00 0.00 83 1017.5
20260506112205 50 11 3.5 3.5 0.00 0.00 0.00 84 1017.4
20260506111702 50 20 4.3 4.3 0.00 0.00 0.00 83 1017.3
20260506111200 50 28 0.0 3.5 0.00 0.00 0.00 83 1017.2
20260506110657 50 27 3.5 4.3 0.00 0.00 0.00 83 1017.2
20260506110154 50 343 0.9 3.5 0.00 0.00 0.00 84 1017.4
20260506105651 50 27 2.6 4.3 0.00 0.00 0.00 84 1017.1
20260506105148 50 35 0.0 3.5 0.00 0.00 0.00 84 1017.4
20260506104646 50 22 0.9 2.6 0.00 0.00 0.00 84 1017.0
20260506104143 50 16 3.5 4.3 0.00 0.00 0.00 84 1017.3
20260506103640 50 340 0.9 3.5 0.00 0.00 0.00 84 1017.4
20260506103137 50 30 2.6 5.2 0.00 0.00 0.00 84 1017.4
20260506102635 50 33 3.5 4.3 0.00 0.00 0.00 84 1017.2
20260506102132 50 24 3.5 3.5 0.00 0.00 0.00 85 1017.3
20260506101629 50 33 0.0 2.6 0.00 0.00 0.00 84 1017.3
20260506101126 50 17 0.0 3.5 0.00 0.00 0.00 84 1017.3
20260506100624 50 32 0.0 2.6 0.00 0.00 0.00 84 1017.3
20260506100122 50 33 3.5 3.5 0.00 0.00 0.00 84 1017.4
20260506095621 50 48 0.0 3.5 0.00 0.00 0.00 84 1017.4
20260506095117 50 76 0.0 3.5 0.00 0.00 0.00 84 1017.5
20260506094614 50 4 3.5 3.5 0.00 0.00 0.00 84 1017.4
20260506094112 50 3 3.5 3.5 0.00 0.00 0.00 84 1017.5
20260506093610 50 43 1.7 4.3 0.00 0.00 0.00 84 1017.6
20260506093107 50 33 1.7 3.5 0.00 0.00 0.00 84 1017.6
20260506092605 50 42 0.0 1.7 0.00 0.00 0.00 84 1017.5
20260506092101 50 113 0.0 0.9 0.00 0.00 0.00 84 1017.6
20260506091600 50 17 0.9 4.3 0.00 0.00 0.00 83 1017.7
20260506091057 50 347 0.9 2.6 0.00 0.00 0.00 84 1017.7
20260506090555 50 19 1.7 1.7 0.00 0.00 0.00 85 1017.5
20260506090050 50 38 1.7 2.6 0.00 0.00 0.00 85 1017.6
20260506085548 50 49 0.9 1.7 0.00 0.00 0.00 85 1017.5
20260506085044 50 56 0.9 1.7 0.00 0.00 0.00 85 1017.6
20260506084541 50 39 1.7 1.7 0.00 0.00 0.00 85 1017.7
20260506084037 50 48 0.9 1.7 0.00 0.00 0.00 84 1017.8
20260506083535 50 77 0.0 0.9 0.00 0.00 0.00 84 1017.7
20260506083032 51 52 1.7 1.7 0.00 0.00 0.00 84 1017.9
20260506082528 51 63 0.0 1.7 0.00 0.00 0.00 84 1017.8
20260506082024 51 11 0.9 2.6 0.00 0.00 0.00 84 1018.0
20260506081523 51 48 0.0 1.7 0.00 0.00 0.00 84 1017.8
20260506081020 51 75 0.0 0.0 0.00 0.00 0.00 83 1017.9
20260506080517 51 56 0.0 1.7 0.00 0.00 0.00 83 1017.8
20260506073500 51 317 1.7 3.5 0.00 0.00 0.00 81 1018.0
20260506072958 51 23 1.7 2.6 0.00 0.00 0.00 81 1017.9
20260506072455 51 38 1.7 3.5 0.00 0.00 0.00 81 1017.8
20260506071953 51 43 1.7 3.5 0.00 0.00 0.00 81 1017.9
20260506071450 51 25 3.5 3.5 0.00 0.00 0.00 81 1017.7
20260506070947 51 20 1.7 3.5 0.00 0.00 0.00 81 1017.7
20260506070444 51 19 1.7 5.2 0.00 0.00 0.00 80 1017.7
20260506062422 51 53 0.9 1.7 0.00 0.00 0.00 79 1017.1
20260506061917 52 47 0.0 1.7 0.00 0.00 0.00 79 1017.1
20260506061414 52 44 0.9 1.7 0.00 0.00 0.00 78 1017.2
20260506060912 52 16 1.7 2.6 0.00 0.00 0.00 78 1017.0
20260506060410 52 21 1.7 2.6 0.00 0.00 0.00 77 1017.1
20260506051342 53 23 1.7 3.5 0.00 0.00 0.00 75 1016.8
20260506050839 53 52 0.0 3.5 0.00 0.00 0.00 74 1016.6
20260506050337 54 24 3.5 3.5 0.00 0.00 0.00 73 1016.5
20260506044827 54 75 0.0 3.5 0.00 0.00 0.00 74 1016.3
20260506044325 54 40 1.7 4.3 0.00 0.00 0.00 74 1016.2
20260506043822 54 54 1.7 3.5 0.00 0.00 0.00 74 1016.4
20260506043319 54 8 1.7 4.3 0.00 0.00 0.00 74 1016.3
20260506042817 54 74 0.0 4.3 0.00 0.00 0.00 74 1016.0
20260506042316 54 20 2.6 2.6 0.00 0.00 0.00 74 1016.0
20260506041815 55 33 1.7 1.7 0.00 0.00 0.00 74 1016.0
20260506041311 55 33 4.3 4.3 0.00 0.00 0.00 73 1015.9
20260506040808 55 23 1.7 1.7 0.00 0.00 0.00 75 1015.9
20260506040305 56 60 0.0 1.7 0.00 0.00 0.00 74 1015.9
20260506035802 56 46 1.7 1.7 0.00 0.00 0.00 76 1015.7
20260506035259 57 67 0.9 1.7 0.00 0.00 0.00 75 1015.6
20260506034756 57 70 0.9 1.7 0.00 0.00 0.00 74 1015.6
20260506034253 57 66 0.0 0.9 0.00 0.00 0.00 73 1015.5